Погода в Белогорском

Россия / Архангельская область     64°11′14″N   42°20′09″E
темп.,
°C
ветер,
м/с
пор.,
м/с
влажн.,
%
обл.,
%
осадки,
мм/ч
давл.,
гПа
погр.,
м
25 июля, вс
вс2500:00+9зюз3870100 0.0 1010295
03:00+8зюз287912 0.0 1010260
06:00+10юз3969100 0.0 1010325
09:00+12зюз397097 0.1 1010531
12:00+15з587598 0.6 10101075
15:00+17зсз5106446 2.0 10111763
18:00+17зсз412485 0.1 10121645
21:00+11зсз38705 0.1 1013258
26 июля, пн
пн2600:00+6ссз01915 0.0 101410
03:00+6юз2293100 0.0 101420
06:00+8юз2492100 0.2 1014124
09:00+10зюз1493100 0.4 1014159
12:00+17зсз485098 0.1 10142077
15:00+16ссз484649 0.1 10152002
18:00+14с574813 0.0 10171388
21:00+9ссз38645 0.0 1018335
27 июля, вт
вт2700:00+8зсз31174100 0.0 1018445
03:00+10зсз4107794 0.0 1019595
06:00+11сз410741 0.0 1019658
09:00+15сз59558 0.0 10181245
12:00+19сз69395 0.0 10171983
15:00+19сз68345 0.0 10172061
18:00+18сз47405 0.0 10161766
21:00+12зсз25705 0.0 1016100
28 июля, ср
ср2800:00+7св118261 0.0 101710
03:00+6ююз119062 0.0 101610
06:00+9юз2377100 0.0 1014141
09:00+12ююз2872100 0.1 1010419
12:00+14юз358270 0.8 1009685
15:00+20ссв245393 0.8 10061338
18:00+17св456996 0.0 1006554
21:00+11в22965 0.0 100618
29 июля, чт
чт2900:00+9всв259818 0.0 1006117
03:00+8в2398100 0.0 100553
06:00+10в2491100 0.0 1005188
09:00+14юв3468100 0.0 1003514
12:00+19ююв3446100 0.1 10021128
15:00+21ю344697 0.1 10001381
18:00+21юв2559100 0.1 998848
21:00+15вюв4899100 10.8 997262